Austin, MN

8:44 AM CDT on July 20, 2017 (GMT -0500)
Austin Municipal

Weather History for KAUM - February, 2014

Change the Weather History Date:

Sunday, February 2, 2014

  Actual Average Record
Temperature  
Mean Temperature 2 °F -  
Max Temperature 10 °F 24 °F 48 °F (2006)
Min Temperature -7 °F 11 °F -14 °F (2001)
Degree Days  
Heating Degree Days 64    
Moisture  
Dew Point -5 °F    
Average Humidity 79    
Maximum Humidity 92    
Minimum Humidity 62    
Precipitation  
Precipitation 0.00 in - - ()
Sea Level Pressure  
Sea Level Pressure 30.24 in    
Wind  
Wind Speed 8 mph (WSW)    
Max Wind Speed 14 mph    
Max Gust Speed 18 mph    
Visibility 10 miles    
Events      
Averages and records for this station are not official NWS values.
T = Trace of Precipitation, MM = Missing Value Source: NWS Daily Summary

Daily Weather History Graph

Daily Weather History Graph

Search for Another Location

Airport or City:

Trip Planner

Search our weather history database for the weather conditions in past years. The results will help you decide how hot, cold, wet, or windy it might be!

Date:

Astronomy

Feb. 02, 2014 Rise Set
Actual Time 7:27 AM CST 5:24 PM CST
Civil Twilight 6:56 AM CST 5:54 PM CST
Nautical Twilight 6:22 AM CST 6:29 PM CST
Astronomical Twilight 5:48 AM CST 7:02 PM CST
Moon 8:46 AM CST (2/2) 9:17 PM CST (2/2)
Length of Visible Light 10h 58m
Length of Day
9h 57m
Waxing Crescent, 11% of the Moon is Illuminated
Feb 2
Waxing Crescent
Feb 6
First Quarter
Feb 14
Full
Feb 22
Last Quarter
Mar 1
New

Hourly Weather History & Observations

Time (CST) Temp. Windchill Dew Point Humidity Pressure Visibility Wind Dir Wind Speed Gust Speed Precip Events Conditions
12:15 AM -2.2 °F -21.5 °F -7.6 °F 78% 30.18 in 10.0 mi NW 13.8 mph 18.4 mph N/A   Clear
12:34 AM -2.2 °F -19.9 °F -7.6 °F 78% 30.19 in 10.0 mi NW 11.5 mph - N/A   Clear
12:55 AM -2.2 °F -19.9 °F -7.6 °F 78% 30.19 in 10.0 mi NW 11.5 mph 16.1 mph N/A   Clear
1:15 AM -2.2 °F -19.9 °F -9.4 °F 71% 30.19 in 10.0 mi NW 11.5 mph - N/A   Clear
1:34 AM -2.2 °F -19.9 °F -7.6 °F 78% 30.19 in 10.0 mi NW 11.5 mph - N/A   Clear
1:55 AM -2.2 °F -20.7 °F -9.4 °F 71% 30.19 in 10.0 mi NW 12.7 mph - N/A   Clear
2:15 AM -4.0 °F -22.1 °F -9.4 °F 78% 30.20 in 10.0 mi NW 11.5 mph - N/A   Clear
2:34 AM -4.0 °F -20.2 °F -9.4 °F 78% 30.20 in 10.0 mi NW 9.2 mph - N/A   Clear
2:55 AM -4.0 °F -20.2 °F -9.4 °F 78% 30.20 in 10.0 mi NW 9.2 mph - N/A   Clear
3:15 AM -5.8 °F -22.4 °F -9.4 °F 84% 30.21 in 10.0 mi NW 9.2 mph - N/A   Clear
3:34 AM -5.8 °F -22.4 °F -9.4 °F 84% 30.20 in 10.0 mi NW 9.2 mph - N/A   Clear
3:55 AM -5.8 °F -21.2 °F -9.4 °F 84% 30.21 in 10.0 mi NW 8.1 mph - N/A   Clear
4:15 AM -5.8 °F -21.2 °F -9.4 °F 84% 30.21 in 10.0 mi WNW 8.1 mph - N/A   Clear
4:34 AM -5.8 °F -19.9 °F -9.4 °F 84% 30.22 in 10.0 mi WNW 6.9 mph - N/A   Clear
4:55 AM -5.8 °F -21.2 °F -9.4 °F 84% 30.23 in 10.0 mi WNW 8.1 mph - N/A   Clear
5:15 AM -5.8 °F -21.2 °F -9.4 °F 84% 30.23 in 10.0 mi WNW 8.1 mph - N/A   Clear
5:34 AM -5.8 °F -23.4 °F -9.4 °F 84% 30.23 in 10.0 mi WNW 10.4 mph - N/A   Clear
5:55 AM -5.8 °F -22.4 °F -9.4 °F 84% 30.23 in 10.0 mi WNW 9.2 mph - N/A   Clear
6:15 AM -5.8 °F -18.4 °F -9.4 °F 84% 30.24 in 10.0 mi WNW 5.8 mph - N/A   Clear
6:34 AM -5.8 °F -21.2 °F -9.4 °F 84% 30.24 in 10.0 mi WNW 8.1 mph - N/A   Clear
6:55 AM -5.8 °F -19.9 °F -9.4 °F 84% 30.25 in 10.0 mi WNW 6.9 mph - N/A   Clear
7:15 AM -7.6 °F -18.8 °F -9.4 °F 92% 30.25 in 10.0 mi WNW 4.6 mph - N/A   Clear
7:35 AM -5.8 °F -16.7 °F -9.4 °F 84% 30.25 in 10.0 mi NW 4.6 mph - N/A   Clear
7:55 AM -7.6 °F -18.8 °F -9.4 °F 92% 30.25 in 10.0 mi NW 4.6 mph - N/A   Clear
8:14 AM -7.6 °F - -9.4 °F 92% 30.26 in 10.0 mi Calm Calm - N/A   Clear
8:35 AM -5.8 °F -16.7 °F -9.4 °F 84% 30.26 in 10.0 mi WNW 4.6 mph - N/A   Clear
8:55 AM -4.0 °F -12.4 °F -7.6 °F 85% 30.27 in 10.0 mi WNW 3.5 mph - N/A   Clear
9:14 AM -2.2 °F -14.2 °F -5.8 °F 85% 30.28 in 10.0 mi WNW 5.8 mph - N/A   Clear
9:35 AM -0.4 °F -10.4 °F -5.8 °F 78% 30.28 in 10.0 mi WNW 4.6 mph - N/A   Clear
9:55 AM -0.4 °F -10.4 °F -5.8 °F 78% 30.28 in 10.0 mi WNW 4.6 mph - N/A   Clear
10:14 AM 1.4 °F -6.2 °F -4.0 °F 78% 30.29 in 10.0 mi WNW 3.5 mph - N/A   Clear
10:35 AM 1.4 °F - -4.0 °F 78% 30.29 in 10.0 mi Calm Calm - N/A   Clear
10:55 AM 1.4 °F - -5.8 °F 72% 30.29 in 10.0 mi Calm Calm - N/A   Clear
11:14 AM 1.4 °F - -4.0 °F 78% 30.28 in 10.0 mi Calm Calm - N/A   Clear
11:35 AM 3.2 °F - -2.2 °F 78% 30.27 in 10.0 mi Calm Calm - N/A   Clear
11:55 AM 5.0 °F -5.6 °F -2.2 °F 72% 30.26 in 10.0 mi SSW 5.8 mph - N/A   Clear
12:14 PM 6.8 °F -4.8 °F -2.2 °F 67% 30.27 in 10.0 mi SSW 6.9 mph - N/A   Clear
12:35 PM 6.8 °F -4.8 °F -0.4 °F 72% 30.26 in 10.0 mi SW 6.9 mph - N/A   Clear
12:55 PM 6.8 °F -6.9 °F -0.4 °F 72% 30.27 in 10.0 mi SSW 9.2 mph - N/A   Clear
1:14 PM 6.8 °F -4.8 °F -0.4 °F 72% 30.26 in 10.0 mi SW 6.9 mph - N/A   Clear
1:35 PM 6.8 °F -5.9 °F -0.4 °F 72% 30.26 in 10.0 mi SW 8.1 mph - N/A   Clear
1:55 PM 8.6 °F -3.7 °F 1.4 °F 73% 30.26 in 10.0 mi SW 8.1 mph - N/A   Clear
2:14 PM 8.6 °F -3.7 °F 1.4 °F 73% 30.26 in 10.0 mi SW 8.1 mph - N/A   Clear
2:35 PM 8.6 °F -2.6 °F -0.4 °F 67% 30.26 in 10.0 mi SW 6.9 mph - N/A   Clear
2:53 PM 8.6 °F -2.6 °F -0.4 °F 67% 30.26 in 10.0 mi SW 6.9 mph - N/A   Clear
3:15 PM 10.4 °F 4.0 °F -0.4 °F 62% 30.26 in 10.0 mi SW 3.5 mph - N/A   Unknown
3:35 PM 8.6 °F 0.1 °F 1.4 °F 73% 30.25 in 10.0 mi SW 4.6 mph - N/A   Unknown
3:55 PM 10.4 °F 2.2 °F -0.4 °F 62% 30.25 in 10.0 mi SSW 4.6 mph - N/A   Clear
4:14 PM 10.4 °F 0.8 °F -0.4 °F 62% 30.25 in 10.0 mi SW 5.8 mph - N/A   Clear
4:35 PM 8.6 °F 0.1 °F -0.4 °F 67% 30.25 in 10.0 mi SSW 4.6 mph - N/A   Clear
4:55 PM 8.6 °F 0.1 °F -0.4 °F 67% 30.25 in 10.0 mi SW 4.6 mph - N/A   Clear
5:14 PM 8.6 °F 2.0 °F -0.4 °F 67% 30.24 in 10.0 mi SSW 3.5 mph - N/A   Clear
5:35 PM 6.8 °F -3.5 °F -0.4 °F 72% 30.24 in 10.0 mi South 5.8 mph - N/A   Clear
5:55 PM 6.8 °F -2.0 °F -0.4 °F 72% 30.24 in 10.0 mi South 4.6 mph - N/A   Clear
6:14 PM 5.0 °F -4.1 °F -2.2 °F 72% 30.24 in 10.0 mi South 4.6 mph - N/A   Clear
6:35 PM 3.2 °F -4.2 °F -0.4 °F 85% 30.23 in 10.0 mi SSE 3.5 mph - N/A   Clear
6:54 PM 3.2 °F -7.8 °F -0.4 °F 85% 30.23 in 10.0 mi South 5.8 mph - N/A   Clear
7:15 PM 1.4 °F -9.9 °F -2.2 °F 85% 30.22 in 10.0 mi South 5.8 mph - N/A   Clear
7:35 PM 1.4 °F -8.3 °F -0.4 °F 92% 30.22 in 10.0 mi South 4.6 mph - N/A   Clear
7:54 PM 1.4 °F -8.3 °F -2.2 °F 85% 30.21 in 10.0 mi South 4.6 mph - N/A   Clear
8:15 PM 1.4 °F - -2.2 °F 85% 30.21 in 10.0 mi Calm Calm - N/A   Clear
8:35 PM 1.4 °F -6.2 °F -2.2 °F 85% 30.21 in 10.0 mi South 3.5 mph - N/A   Clear
8:54 PM -0.4 °F -13.4 °F -4.0 °F 85% 30.22 in 10.0 mi South 6.9 mph - N/A   Clear
9:15 PM -0.4 °F -12.0 °F -2.2 °F 92% 30.22 in 10.0 mi South 5.8 mph - N/A   Clear
9:35 PM -0.4 °F -10.4 °F -2.2 °F 92% 30.22 in 10.0 mi South 4.6 mph - N/A   Clear
9:54 PM -0.4 °F -8.3 °F -2.2 °F 92% 30.22 in 10.0 mi South 3.5 mph - N/A   Clear
10:15 PM -5.8 °F -14.5 °F -7.6 °F 92% 30.23 in 10.0 mi SSE 3.5 mph - N/A   Clear
10:35 PM -2.2 °F -10.4 °F -5.8 °F 85% 30.23 in 10.0 mi SSE 3.5 mph - N/A   Clear
10:55 PM -0.4 °F -10.4 °F -4.0 °F 85% 30.22 in 10.0 mi South 4.6 mph - N/A   Clear
11:15 PM -0.4 °F -12.0 °F -4.0 °F 85% 30.22 in 10.0 mi South 5.8 mph - N/A   Clear
11:35 PM -0.4 °F -10.4 °F -4.0 °F 85% 30.21 in 10.0 mi South 4.6 mph - N/A   Clear
11:55 PM -0.4 °F -10.4 °F -4.0 °F 85% 30.22 in 10.0 mi South 4.6 mph - N/A   Clear